When you browse on this site, cookies collect data to enhance your experience and personalize the content and advertising you see.
Visit our Privacy Policy to learn more. By continuing to use the site, you agree to this use of cookies and data.
  • In Österreich
  • Länderverzeichnis
  • Für 7 Tage
  • Wassertemperatur
  • Satellitenkarten
  • Wetterkarte
  • News
  • Widgets
  • user-avatar
    Anmelden

    Stündliche Wetter Krobielewko

    Heute, 26 Mai, Sonntag

    Zeit Temperatur Niederschläge Wind Luftdruck Luftfeuchtigkeit
    00:00 +9°C° 0 mm 2 m/S 757 mmHg 84%
    01:00 +9°C° 0 mm 2 m/S 757 mmHg 84%
    02:00 +10°C° 0 mm 2 m/S 757 mmHg 82%
    03:00 +10°C° 0 mm 2 m/S 757 mmHg 79%
    04:00 +10°C° 0 mm 3 m/S 757 mmHg 77%
    05:00 +11°C° 0 mm 3 m/S 757 mmHg 73%
    06:00 +12°C° 0 mm 3 m/S 757 mmHg 70%
    07:00 +13°C° 0 mm 4 m/S 757 mmHg 66%
    08:00 +14°C° 0 mm 4 m/S 756 mmHg 62%
    09:00 +15°C° 0 mm 4 m/S 756 mmHg 58%
    10:00 +18°C° 0 mm 4 m/S 756 mmHg 53%
    11:00 +19°C° 0 mm 5 m/S 756 mmHg 50%
    12:00 +20°C° 0 mm 5 m/S 755 mmHg 46%
    13:00 +22°C° 0 mm 5 m/S 755 mmHg 43%
    14:00 +21°C° 0 mm 5 m/S 754 mmHg 46%
    15:00 +21°C° 0 mm 5 m/S 754 mmHg 49%
    16:00 +21°C° 0 mm 5 m/S 754 mmHg 52%
    17:00 +20°C° 0 mm 4 m/S 754 mmHg 57%
    18:00 +19°C° 0 mm 3 m/S 753 mmHg 62%
    19:00 +19°C° 0 mm 3 m/S 753 mmHg 67%
    20:00 +18°C° 0 mm 2 m/S 753 mmHg 71%
    21:00 +17°C° 0 mm 2 m/S 753 mmHg 75%
    22:00 +16°C° 0 mm 2 m/S 753 mmHg 78%
    23:00 +16°C° 0 mm 2 m/S 753 mmHg 79%

    Morgen, 27 Mai, Montag

    Zeit Temperatur Niederschläge Wind Luftdruck Luftfeuchtigkeit
    00:00 +16°C° 0 mm 3 m/S 753 mmHg 79%
    01:00 +15°C° 0 mm 4 m/S 752 mmHg 80%
    02:00 +15°C° 0 mm 4 m/S 752 mmHg 79%
    03:00 +15°C° 0 mm 4 m/S 752 mmHg 78%
    04:00 +15°C° 0 mm 4 m/S 752 mmHg 77%
    05:00 +17°C° 0 mm 4 m/S 751 mmHg 74%
    06:00 +17°C° 0 mm 5 m/S 751 mmHg 72%
    07:00 +19°C° 0 mm 5 m/S 751 mmHg 69%
    08:00 +20°C° 0.1 mm 5 m/S 752 mmHg 67%
    09:00 +21°C° 0.1 mm 5 m/S 752 mmHg 64%
    10:00 +22°C° 0.1 mm 6 m/S 752 mmHg 62%
    11:00 +21°C° 0.3 mm 6 m/S 752 mmHg 63%
    12:00 +21°C° 0.3 mm 6 m/S 752 mmHg 65%
    13:00 +21°C° 0.3 mm 5 m/S 752 mmHg 66%
    14:00 +21°C° 0 mm 5 m/S 752 mmHg 62%
    15:00 +21°C° 0 mm 5 m/S 752 mmHg 58%
    16:00 +21°C° 0 mm 4 m/S 753 mmHg 54%
    17:00 +20°C° 0 mm 4 m/S 753 mmHg 59%
    18:00 +18°C° 0 mm 3 m/S 753 mmHg 63%
    19:00 +17°C° 0 mm 2 m/S 753 mmHg 68%
    20:00 +16°C° 0 mm 2 m/S 753 mmHg 74%
    21:00 +14°C° 0 mm 2 m/S 753 mmHg 79%
    22:00 +13°C° 0 mm 2 m/S 753 mmHg 85%
    23:00 +13°C° 0 mm 2 m/S 753 mmHg 83%

    übermorgen, 28 Mai, Dienstag

    Zeit Temperatur Niederschläge Wind Luftdruck Luftfeuchtigkeit
    00:00 +13°C° 0 mm 2 m/S 753 mmHg 81%
    01:00 +13°C° 0 mm 2 m/S 753 mmHg 79%
    02:00 +13°C° 0.1 mm 2 m/S 752 mmHg 82%
    03:00 +13°C° 0.1 mm 2 m/S 752 mmHg 84%
    04:00 +13°C° 0.1 mm 2 m/S 751 mmHg 87%
    05:00 +12°C° 0.8 mm 2 m/S 751 mmHg 89%
    06:00 +12°C° 0.8 mm 2 m/S 751 mmHg 91%
    07:00 +12°C° 0.8 mm 2 m/S 751 mmHg 92%
    08:00 +12°C° 1.5 mm 2 m/S 751 mmHg 92%
    09:00 +12°C° 1.5 mm 2 m/S 751 mmHg 92%
    10:00 +11°C° 1.5 mm 3 m/S 751 mmHg 92%
    11:00 +12°C° 1.9 mm 2 m/S 751 mmHg 92%
    12:00 +12°C° 1.9 mm 2 m/S 751 mmHg 91%
    13:00 +12°C° 1.9 mm 2 m/S 751 mmHg 91%
    14:00 +12°C° 0.6 mm 2 m/S 751 mmHg 90%
    15:00 +13°C° 0.6 mm 2 m/S 751 mmHg 89%
    16:00 +13°C° 0.6 mm 2 m/S 751 mmHg 87%
    17:00 +13°C° 0 mm 1 m/S 751 mmHg 88%
    18:00 +12°C° 0 mm 1 m/S 751 mmHg 89%
    19:00 +12°C° 0 mm 1 m/S 751 mmHg 89%
    20:00 +12°C° 0 mm 1 m/S 751 mmHg 91%
    21:00 +11°C° 0 mm 1 m/S 751 mmHg 92%
    22:00 +11°C° 0 mm 1 m/S 752 mmHg 94%
    23:00 +10°C° 0 mm 1 m/S 752 mmHg 94%

    29 Mai, Mittwoch

    Zeit Temperatur Niederschläge Wind Luftdruck Luftfeuchtigkeit
    00:00 +10°C° 0 mm 1 m/S 752 mmHg 94%
    01:00 +10°C° 0 mm 1 m/S 752 mmHg 94%
    02:00 +9°C° 0 mm 1 m/S 752 mmHg 94%
    03:00 +9°C° 0 mm 1 m/S 752 mmHg 94%
    04:00 +9°C° 0 mm 1 m/S 752 mmHg 94%
    05:00 +11°C° 0 mm 1 m/S 752 mmHg 90%
    06:00 +12°C° 0 mm 2 m/S 752 mmHg 87%
    07:00 +14°C° 0 mm 2 m/S 753 mmHg 83%
    08:00 +15°C° 0.2 mm 2 m/S 753 mmHg 78%
    09:00 +17°C° 0.2 mm 2 m/S 753 mmHg 73%
    10:00 +18°C° 0.2 mm 3 m/S 753 mmHg 69%
    11:00 +18°C° 0.6 mm 3 m/S 753 mmHg 69%
    12:00 +18°C° 0.6 mm 3 m/S 754 mmHg 69%
    13:00 +18°C° 0.6 mm 4 m/S 754 mmHg 70%
    14:00 +18°C° 0.5 mm 4 m/S 754 mmHg 73%
    15:00 +16°C° 0.5 mm 5 m/S 755 mmHg 76%
    16:00 +15°C° 0.5 mm 6 m/S 755 mmHg 79%
    17:00 +14°C° 0 mm 5 m/S 756 mmHg 78%
    18:00 +13°C° 0 mm 5 m/S 756 mmHg 78%
    19:00 +12°C° 0 mm 4 m/S 757 mmHg 77%
    20:00 +10°C° 0 mm 4 m/S 757 mmHg 78%
    21:00 +9°C° 0 mm 3 m/S 758 mmHg 79%
    22:00 +8°C° 0 mm 2 m/S 759 mmHg 80%
    23:00 +7°C° 0 mm 2 m/S 759 mmHg 82%

    30 Mai, Donnerstag

    Zeit Temperatur Niederschläge Wind Luftdruck Luftfeuchtigkeit
    00:00 +7°C° 0 mm 2 m/S 759 mmHg 84%
    01:00 +6°C° 0 mm 2 m/S 760 mmHg 86%
    02:00 +6°C° 0 mm 2 m/S 760 mmHg 88%
    03:00 +6°C° 0 mm 2 m/S 761 mmHg 89%
    04:00 +5°C° 0 mm 2 m/S 761 mmHg 91%
    05:00 +7°C° 0 mm 2 m/S 761 mmHg 82%
    06:00 +10°C° 0 mm 1 m/S 762 mmHg 72%
    07:00 +12°C° 0 mm 1 m/S 762 mmHg 62%
    08:00 +14°C° 0 mm 2 m/S 762 mmHg 56%
    09:00 +15°C° 0 mm 2 m/S 762 mmHg 50%
    10:00 +17°C° 0 mm 2 m/S 762 mmHg 44%
    11:00 +17°C° 0 mm 2 m/S 762 mmHg 42%
    12:00 +18°C° 0 mm 2 m/S 762 mmHg 41%
    13:00 +19°C° 0 mm 2 m/S 762 mmHg 40%
    14:00 +19°C° 0 mm 2 m/S 761 mmHg 42%
    15:00 +19°C° 0 mm 2 m/S 761 mmHg 44%
    16:00 +19°C° 0 mm 3 m/S 761 mmHg 45%
    17:00 +18°C° 0 mm 2 m/S 760 mmHg 53%
    18:00 +17°C° 0 mm 2 m/S 760 mmHg 60%
    19:00 +16°C° 0 mm 2 m/S 760 mmHg 68%
    20:00 +14°C° 0 mm 3 m/S 760 mmHg 70%
    21:00 +14°C° 0 mm 3 m/S 760 mmHg 73%
    22:00 +13°C° 0 mm 3 m/S 760 mmHg 76%
    23:00 +13°C° 0 mm 4 m/S 760 mmHg 76%

    31 Mai, Freitag

    Zeit Temperatur Niederschläge Wind Luftdruck Luftfeuchtigkeit
    00:00 +13°C° 0 mm 4 m/S 759 mmHg 75%
    01:00 +14°C° 0 mm 4 m/S 759 mmHg 75%
    02:00 +13°C° 0.1 mm 4 m/S 758 mmHg 79%
    03:00 +13°C° 0.1 mm 4 m/S 758 mmHg 84%
    04:00 +13°C° 0.1 mm 4 m/S 758 mmHg 88%
    05:00 +13°C° 0.4 mm 5 m/S 758 mmHg 90%
    06:00 +13°C° 0.4 mm 5 m/S 759 mmHg 91%
    07:00 +13°C° 0.4 mm 5 m/S 759 mmHg 93%
    08:00 +13°C° 0.3 mm 5 m/S 760 mmHg 89%
    09:00 +12°C° 0.3 mm 5 m/S 761 mmHg 85%
    10:00 +12°C° 0.3 mm 5 m/S 762 mmHg 81%
    11:00 +14°C° 0 mm 5 m/S 762 mmHg 66%
    12:00 +15°C° 0 mm 5 m/S 763 mmHg 52%
    13:00 +17°C° 0 mm 5 m/S 763 mmHg 37%
    14:00 +17°C° 0 mm 5 m/S 764 mmHg 37%
    15:00 +18°C° 0 mm 4 m/S 764 mmHg 37%
    16:00 +18°C° 0 mm 4 m/S 764 mmHg 37%
    17:00 +17°C° 0 mm 3 m/S 765 mmHg 43%
    18:00 +16°C° 0 mm 2 m/S 765 mmHg 49%
    19:00 +15°C° 0 mm 1 m/S 765 mmHg 55%
    20:00 +13°C° 0 mm 1 m/S 766 mmHg 59%
    21:00 +12°C° 0 mm 1 m/S 766 mmHg 62%
    22:00 +9°C° 0 mm 0 m/S 766 mmHg 66%
    23:00 +10°C° 0 mm 1 m/S 766 mmHg 65%
    Mehr zeigen